Location: Bastelaar
(51.0950°N, 3.8602°E)
Time: 07:46:14
(UTC+00:00)

CZ-4C R/B - Pass Details

Date: 18 November 2025
Orbit: 487 x 1493 km, 63.4° (Epoch: 12 December)

Event Time Altitude Azimuth Distance (km) Brightness Sun altitude
Rises 16:54:51 0° 260° (W) 2,903 7.1 -9.7°
Reaches altitude 10° 16:57:04 10° 270° (W) 2,113 5.6 -10.0°
Maximum altitude 17:01:29 35° 337° (NNW) 1,272 3.2 -10.7°
Drops below altitude 10° 17:07:06 10° 42° (NE) 2,702 4.3 -11.5°
Enters shadow 17:07:10 10° 42° (NE) 2,728 4.3 -11.5°
